Winter Haven, FL

11:51 PM EDT on September 25, 2016 (GMT -0400)
Winter Haven's-Gilbert

Weather History for KGIF - November, 2013

Change the Weather History Date:

Tuesday, November 5, 2013

  Actual Average Record
Temperature  
Mean Temperature 73 °F -  
Max Temperature 82 °F 79 °F 90 °F (1973)
Min Temperature 64 °F 58 °F 42 °F (1969)
Cooling Degree Days 8    
Growing Degree Days 23 (Base 50)    
Moisture  
Dew Point 65 °F    
Average Humidity 78    
Maximum Humidity 93    
Minimum Humidity 54    
Precipitation  
Precipitation 0.00 in - - ()
Sea Level Pressure  
Sea Level Pressure 30.13 in    
Wind  
Wind Speed 10 mph (NE)    
Max Wind Speed 20 mph    
Max Gust Speed 28 mph    
Visibility 10 miles    
Events      
Averages and records for this station are not official NWS values.
T = Trace of Precipitation, MM = Missing Value Source: NWS Daily Summary

Daily Weather History Graph

Daily Weather History Graph

Search for Another Location

Airport or City:

Trip Planner

Search our weather history database for the weather conditions in past years. The results will help you decide how hot, cold, wet, or windy it might be!

Date:

Astronomy

Nov. 05, 2013 Rise Set
Actual Time 6:41 AM EST 5:39 PM EST
Civil Twilight 6:16 AM EST 6:03 PM EST
Nautical Twilight 5:48 AM EST 6:31 PM EST
Astronomical Twilight 5:21 AM EST 6:59 PM EST
Moon 8:48 AM EST (11/5) 7:46 PM EST (11/5)
Length of Visible Light 11h 46m
Length of Day
10h 58m
Waxing Crescent, 6% of the Moon is Illuminated
Nov 5
Waxing Crescent
Nov 10
First Quarter
Nov 17
Full
Nov 25
Last Quarter
Dec 2
New

Hourly Weather History & Observations

Time (EST) Temp. Heat Index Dew Point Humidity Pressure Visibility Wind Dir Wind Speed Gust Speed Precip Events Conditions
12:53 AM 66.0 °F - 64.0 °F 93% 30.15 in 10.0 mi North 4.6 mph - N/A   Mostly Cloudy
1:53 AM 64.9 °F - 63.0 °F 93% 30.13 in 10.0 mi NNE 4.6 mph - N/A   Scattered Clouds
2:53 AM 64.9 °F - 62.1 °F 90% 30.13 in 10.0 mi NNE 9.2 mph - N/A   Clear
3:53 AM 64.9 °F - 62.1 °F 90% 30.12 in 10.0 mi NNE 5.8 mph - N/A   Clear
4:53 AM 66.0 °F - 64.0 °F 93% 30.13 in 10.0 mi NE 9.2 mph - N/A   Mostly Cloudy
5:53 AM 68.0 °F - 64.9 °F 90% 30.13 in 10.0 mi ENE 9.2 mph - N/A   Overcast
6:53 AM 66.9 °F - 64.0 °F 90% 30.14 in 10.0 mi NNE 8.1 mph - N/A   Partly Cloudy
7:53 AM 69.1 °F - 64.9 °F 87% 30.16 in 10.0 mi NE 9.2 mph - N/A   Partly Cloudy
8:53 AM 72.0 °F - 66.0 °F 81% 30.17 in 10.0 mi NE 13.8 mph - N/A   Overcast
9:53 AM 77.0 °F - 66.9 °F 71% 30.17 in 10.0 mi ENE 15.0 mph - N/A   Mostly Cloudy
10:53 AM 77.0 °F - 64.9 °F 66% 30.17 in 10.0 mi ENE 18.4 mph 25.3 mph N/A   Overcast
11:53 AM 82.0 °F 84.1 °F 66.0 °F 58% 30.14 in 10.0 mi ENE 18.4 mph 25.3 mph N/A   Overcast
12:53 PM 80.1 °F 82.1 °F 66.0 °F 62% 30.12 in 10.0 mi ENE 19.6 mph 25.3 mph N/A   Mostly Cloudy
1:53 PM 80.1 °F 81.9 °F 64.9 °F 60% 30.10 in 10.0 mi NE 17.3 mph 23.0 mph N/A   Overcast
2:53 PM 82.0 °F 83.4 °F 64.0 °F 54% 30.09 in 10.0 mi ENE 16.1 mph 26.5 mph N/A   Partly Cloudy
3:53 PM 80.1 °F 81.7 °F 64.0 °F 58% 30.09 in 10.0 mi ENE 19.6 mph 27.6 mph N/A   Clear
4:53 PM 78.1 °F - 64.9 °F 64% 30.10 in 10.0 mi ENE 17.3 mph 23.0 mph N/A   Partly Cloudy
5:53 PM 73.9 °F - 64.9 °F 73% 30.12 in 10.0 mi NE 17.3 mph - N/A   Clear
6:53 PM 72.0 °F - 64.9 °F 78% 30.13 in 10.0 mi NE 13.8 mph - N/A   Overcast
7:53 PM 71.1 °F - 66.9 °F 87% 30.14 in 10.0 mi NE 15.0 mph - N/A   Clear
8:53 PM 71.1 °F - 66.9 °F 87% 30.15 in 10.0 mi NE 11.5 mph - N/A   Overcast
9:53 PM 71.1 °F - 66.0 °F 84% 30.15 in 10.0 mi ENE 11.5 mph - N/A   Overcast
10:53 PM 72.0 °F - 66.0 °F 81% 30.14 in 10.0 mi ENE 10.4 mph - N/A   Overcast
11:53 PM 72.0 °F - 66.0 °F 81% 30.13 in 10.0 mi ENE 11.5 mph - N/A   Overcast